Terug naar catalogus

UNISAT 7

ActiefWetenschapSSO
NORAD 47945·PAYLOAD·🇮🇹 Italy

Gelanceerd Mar 22, 2021 vanaf Baikonur Cosmodrome

Loading…

Volgende Passages (komende 24 uur)

TLE

VersSource: Space-Track

Epoch: Sep 14, 2026, 12:59 UTC

1 47945U 21022P   26257.54163697  .00012216  00000-0  28201-3 0  9997
2 47945  97.3780 163.4882 0010596 107.3719 252.8688 15.42629977303621

Volg UNISAT 7 in realtime met AllMySat

Download on the App Store